Louisville, KY

3:23 PM EST on February 19, 2018 (GMT -0500)
Louisville International-Standiford

Weather History for KSDF - July, 2012

Change the Weather History Date:

Tuesday, July 10, 2012

  Actual Average Record
Temperature  
Mean Temperature 83 °F 79 °F  
Max Temperature 95 °F 89 °F 104 °F (1936)
Min Temperature 70 °F 70 °F 52 °F (1961)
Degree Days  
Heating Degree Days 0 0  
Month to date heating degree days 0 0  
Since 1 June heating degree days 7 5  
Since 1 July heating degree days 0 0  
Cooling Degree Days 18 14  
Month to date cooling degree days 222 140  
Year to date cooling degree days 929 638  
Since 1 June cooling degree days 574 464  
Growing Degree Days 32 (Base 50)    
Moisture  
Dew Point 59 °F    
Average Humidity 53    
Maximum Humidity 79    
Minimum Humidity 26    
Precipitation  
Precipitation 0.00 in 0.13 in 2.16 in (1991)
Month to date precipitation 0.05 1.30  
Year to date precipitation 24.16 24.96  
Snow  
Snow 0.00 in 0.00 in - ()
Month to date snowfall 0.0 0.0  
Since 1 June snowfall 0.0 0.0  
Since 1 July snowfall 0.0 0.0  
Snow Depth 0.00 in    
Sea Level Pressure  
Sea Level Pressure 29.98 in    
Wind  
Wind Speed 4 mph (NE)    
Max Wind Speed 15 mph    
Max Gust Speed 18 mph    
Visibility 10 miles    
Events      
T = Trace of Precipitation, MM = Missing Value Source: NWS Daily Summary

Daily Weather History Graph

Daily Weather History Graph

Search for Another Location

Airport or City:

Trip Planner

Search our weather history database for the weather conditions in past years. The results will help you decide how hot, cold, wet, or windy it might be!

Date:

Astronomy

Jul. 10, 2012 Rise Set
Actual Time 6:28 AM EDT 9:07 PM EDT
Civil Twilight 5:57 AM EDT 9:38 PM EDT
Nautical Twilight 5:19 AM EDT 10:17 PM EDT
Astronomical Twilight 4:35 AM EDT 11:00 PM EDT
Moon 12:30 AM EDT (7/10) 1:46 PM EDT (7/10)
Length of Visible Light 15h 40m
Length of Day
14h 38m
Waning Gibbous, 54% of the Moon is Illuminated
Jul 10
Waning Gibbous
Jul 10
Last Quarter
Jul 19
New
Jul 26
First Quarter
Aug 1
Full

Hourly Weather History & Observations

Time (EDT) Temp. Heat Index Dew Point Humidity Pressure Visibility Wind Dir Wind Speed Gust Speed Precip Events Conditions
12:56 AM 75.0 °F - 60.1 °F 60% 29.98 in 10.0 mi Calm Calm - N/A   Mostly Cloudy
1:56 AM 73.9 °F - 60.1 °F 62% 29.98 in 10.0 mi Calm Calm - N/A   Mostly Cloudy
2:56 AM 72.0 °F - 61.0 °F 68% 29.98 in 10.0 mi Calm Calm - N/A   Scattered Clouds
3:56 AM 73.0 °F - 61.0 °F 66% 29.98 in 10.0 mi NNW 3.5 mph - N/A   Mostly Cloudy
4:56 AM 73.0 °F - 64.0 °F 73% 29.98 in 10.0 mi Calm Calm - N/A   Scattered Clouds
5:56 AM 71.1 °F - 64.9 °F 81% 29.99 in 10.0 mi NNW 3.5 mph - N/A   Mostly Cloudy
6:56 AM 71.1 °F - 64.9 °F 81% 29.99 in 9.0 mi Calm Calm - N/A   Partly Cloudy
7:56 AM 73.0 °F - 64.9 °F 76% 30.00 in 10.0 mi Calm Calm - N/A   Mostly Cloudy
8:56 AM 75.9 °F - 63.0 °F 64% 30.01 in 10.0 mi North 5.8 mph - N/A   Mostly Cloudy
9:56 AM 82.0 °F 83.4 °F 64.0 °F 54% 30.02 in 10.0 mi NNE 4.6 mph - N/A   Mostly Cloudy
10:56 AM 86.0 °F 85.0 °F 57.9 °F 38% 30.01 in 10.0 mi Calm Calm - N/A   Scattered Clouds
11:56 AM 89.1 °F 87.7 °F 57.0 °F 34% 30.01 in 10.0 mi East 6.9 mph - N/A   Scattered Clouds
12:56 PM 89.1 °F 87.1 °F 55.0 °F 31% 30.01 in 10.0 mi SE 4.6 mph - N/A   Mostly Cloudy
1:56 PM 91.9 °F 90.3 °F 55.9 °F 30% 29.99 in 10.0 mi North 6.9 mph - N/A   Mostly Cloudy
2:56 PM 93.0 °F 91.1 °F 55.0 °F 28% 29.97 in 10.0 mi NE 8.1 mph 17.3 mph N/A   Mostly Cloudy
3:56 PM 93.9 °F 91.7 °F 54.0 °F 26% 29.96 in 10.0 mi Variable 4.6 mph - N/A   Mostly Cloudy
5:56 PM 93.0 °F 90.8 °F 54.0 °F 27% 29.95 in 10.0 mi Calm Calm - N/A   Mostly Cloudy
6:56 PM 93.9 °F 91.4 °F 53.1 °F 25% 29.93 in 10.0 mi NNE 3.5 mph - N/A   Scattered Clouds
7:56 PM 91.9 °F 89.5 °F 53.1 °F 27% 29.94 in 10.0 mi NE 8.1 mph - N/A   Scattered Clouds
8:56 PM 88.0 °F 86.7 °F 57.0 °F 35% 29.95 in 10.0 mi NE 8.1 mph - N/A   Mostly Cloudy
9:56 PM 86.0 °F 85.0 °F 57.9 °F 38% 29.96 in 10.0 mi NE 4.6 mph - N/A   Scattered Clouds
10:56 PM 84.9 °F 84.2 °F 57.9 °F 40% 29.97 in 10.0 mi East 4.6 mph - N/A   Mostly Cloudy
11:56 PM 82.9 °F 82.8 °F 59.0 °F 44% 29.99 in 10.0 mi ESE 3.5 mph - N/A   Overcast